Regional Weather Roundup
Issued by NWS

Home | Current Version | Previous Version | Graphics & Text | Print | Product List | Glossary On
Versions: 1 2 3 4 5 6 7 8 9 10 11 12 13 14 15 16 17 18 19 20 21 22 23 24 25 26 27 28 29 30 31 32 33 34 35 36 37 38 39 40 41 42 43 44 45 46 47 48 49 50
000
ASUS43 KIND 231509
RWRIN

WEATHER ROUNDUP FOR INDIANA
NATIONAL WEATHER SERVICE INDIANAPOLIS IN
1100 AM EDT SUN APR 23 2017

NOTE: "FAIR" INDICATES FEW OR NO CLOUDS BELOW 12,000 FEET WITH NO
SIGNIFICANT WEATHER AND/OR OBSTRUCTIONS TO VISIBILITY.

* - STATION DOES NOT REPORT WEATHER SUCH AS PRECIPITATION OR FOG.

+ - STATION NOT QUALITY CONTROLLED BY THE NATIONAL WEATHER SERVICE.
    USE DATA WITH CAUTION...ESPECIALLY DEWPOINT AND RELATIVE
    HUMIDITY OBSERVATIONS.

INZ001>003-010>013-019-020-231600-
NORTHWEST INDIANA

CITY           SKY/WX    TMP DP  RH WIND       PRES   REMARKS
GARY /AIRPORT/ SUNNY     61  23  23 CALM      30.14F
KNOX *+        SUNNY     57   7  13 N5        30.13F
LA PORTE +     SUNNY     59  33  37 N6        30.14S
MICHIGAN CITY+ SUNNY     59  32  36 NW5       30.13F
MONTICELLO +   SUNNY     57  32  39 NE12      30.11S
RENSSELAER +   SUNNY     59  28  31 NE10      30.13S
VALPARAISO     SUNNY     61  31  32 NE6       30.13F

$$

LMZ046-743>745-231600-
SOUTHERN LAKE MICHIGAN

STATION/POSITION TIME  TEMP    WIND        PRES    WAVE
                       AIR SEA DIR/SP/G            HT
                 (UTC) (F)     (DEG/KT/KT) (MB)    (FT)
BURNS HARBOR     1440   48     350/  4/  5 1021.0F
MICHIGAN CITY    1440   49     340/  4/  5   N/A

$$

INZ004-005-014>016-021>024-231600-
NORTH CENTRAL INDIANA

CITY           SKY/WX    TMP DP  RH WIND       PRES   REMARKS
ELKHART        SUNNY     59  32  36 N6        30.12F
GOSHEN         SUNNY     58  36  43 NE6       30.12F
LOGANSPORT +   SUNNY     55  32  41 NE8       30.12S
PERU/GRISSOM   SUNNY     56  36  47 E12       30.09F
ROCHESTER +    SUNNY     59  34  38 NE8       30.13S
SOUTH BEND     SUNNY     59  34  39 N7        30.13F
WARSAW +       SUNNY     57  34  41 NE7       30.12F

$$

INZ006>009-017-018-025>027-231600-
NORTHEAST INDIANA

CITY           SKY/WX    TMP DP  RH WIND       PRES   REMARKS
ANGOLA *+      SUNNY     57  46  67 E7        30.12S
AUBURN +       SUNNY     57  34  41 NE7       30.13S
FORT WAYNE     SUNNY     56  34  43 NE13      30.11F
HUNTINGTON +   SUNNY     55  33  43 E8        30.11F
KENDALLVILLE + SUNNY     57  35  44 NE8       30.13S

$$

INZ028-029-035-036-043>045-051>053-231600-
WEST CENTRAL INDIANA

CITY           SKY/WX    TMP DP  RH WIND       PRES   REMARKS
CRAWFORDSVL +  SUNNY     54  35  49 NE12      30.09F
GREENCASTLE +  SUNNY     55  36  47 NE9       30.09S
LAFAYETTE      SUNNY     56  37  49 E12       30.10F
TERRE HAUTE    LGT RAIN  58  33  39 E20       30.08F

$$

INZ030>032-037>040-046>048-054>057-064-065-231600-
CENTRAL INDIANA

CITY           SKY/WX    TMP DP  RH WIND       PRES   REMARKS
CP ATTERBURY + SUNNY     55  36  47 NE10G18   30.08S
COLUMBUS       SUNNY     55  32  41 NE10      30.07R
FISHERS *+     SUNNY     55  39  54 E9G17     30.09
FRANKFORT +    SUNNY     58  35  40 E12       30.11F
GREENWOOD *+   SUNNY     56  34  42 NE16      30.09R
INDIANAPOLIS   MOSUNNY   56  34  43 E13       30.08S
-EAGLE CREEK   SUNNY     56  33  42 NE13      30.08S
KOKOMO +       SUNNY     55  31  39 NE16      30.11F
MARION +       SUNNY     54  30  40 E14G20    30.10F
MT COMFORT *+  SUNNY     55  37  50 E15       30.09R
SHELBYVILLE    SUNNY     58  36  43 NE15      30.07R
ZIONSVILLE +   SUNNY     54  33  43 NE12      30.09F

$$

INZ033-034-041-042-049-050-058-059-231600-
EAST CENTRAL INDIANA

CITY           SKY/WX    TMP DP  RH WIND       PRES   REMARKS
MUNCIE         SUNNY     57  35  43 E14       30.09F
RICHMOND +     SUNNY     54  34  47 NE15G22   30.08S

$$

INZ060-061-067>069-081>083-085>088-231600-
SOUTHWEST INDIANA

CITY           SKY/WX    TMP DP  RH WIND       PRES   REMARKS
EVANSVILLE     MOSUNNY   56  41  57 NE15G24   30.00S
HUNTINGBURG *+ MOSUNNY   54  41  61 NE14G22   30.00F
WASHINGTON +   SUNNY     56  35  44 MISG      30.04S

$$

INZ062-063-066-070>080-084-089>092-231600-
SOUTH CENTRAL AND SOUTHEAST INDIANA

CITY           SKY/WX    TMP DP  RH WIND       PRES   REMARKS
BEDFORD +      SUNNY     55  36  47 NE13G21   30.04R
BLOOMINGTON    SUNNY     57  33  40 NE9G18    30.06R
MADISON *+     SUNNY     55  36  47 NE15G25   30.04S
NORTH VERNON + SUNNY     57  37  47 NE16      30.06R
SEYMOUR +      SUNNY     59  37  44 NE14      30.05R

$$




USA.gov is the U.S. government's official web portal to all federal, state and local government web resources and services.